This demonstration page uses our WeatherBlox Daily Observations layout. Learn more.

Left ArrowRight Arrow

Hourly Observations for January 1, 2022

Temp ( °F °C ) Dew Point ( °F °C ) Humidity (%) Winds ( mph kmh ) Pressure ( in mb ) Visibility ( mi km ) Precip ( " mm )
12:15 am 00:15 Cloudy 55 13 55 13 100 100 S 6 9 29.85 1011 10 16 0.00 0.00
12:35 am 00:35 Cloudy 55 13 55 13 100 100 S 8 13 29.85 1011 10 16 0.00 0.00
12:55 am 00:55 Cloudy 55 13 55 13 100 100 S 5 7 29.85 1011 10 16 0.00 0.00
1:15 am 01:15 Cloudy 55 13 55 13 100 100 S 5 7 29.85 1011 10 16 0.00 0.00
1:35 am 01:35 Cloudy 55 13 55 13 100 100 S 6 9 29.85 1011 10 16 0.00 0.00
1:55 am 01:55 Cloudy 55 13 55 13 100 100 S 6 9 29.85 1011 10 16 0.00 0.00
2:15 am 02:15 Cloudy 55 13 55 13 100 100 SSW 5 7 29.85 1011 7 11 0.00 0.00
2:35 am 02:35 Cloudy 55 13 55 13 100 100 S 3 6 29.85 1011 7 11 0.00 0.00
2:55 am 02:55 Cloudy with Light Rain 55 13 55 13 100 100 SSW 3 6 29.85 1011 7 11 0.00 0.00
3:15 am 03:15 Cloudy 55 13 55 13 100 100 Calm 29.84 1011 7 11 0.00 0.00
3:35 am 03:35 Mostly Cloudy 54 12 54 12 100 100 Calm 29.83 1010 7 11 0.00 0.00
3:55 am 03:55 Partly Cloudy with Mist and Fog 54 12 54 12 100 100 Calm 29.83 1010 5 8 0.00 0.00
4:15 am 04:15 Mostly Cloudy with Mist and Fog 54 12 54 12 100 100 SW 3 6 29.83 1010 4 6 0.00 0.00
4:35 am 04:35 Mostly Cloudy with Mist and Fog 54 12 54 12 100 100 Calm 29.82 1010 4 6 0.00 0.00
4:55 am 04:55 Mostly Cloudy with Mist and Fog 54 12 54 12 100 100 Calm 29.81 1010 5 8 0.00 0.00
5:15 am 05:15 Partly Cloudy with Mist and Fog 54 12 54 12 100 100 Calm 29.82 1010 5 8 0.00 0.00
5:35 am 05:35 Partly Cloudy with Mist and Fog 54 12 54 12 100 100 Calm 29.82 1010 3 4 0.00 0.00
5:55 am 05:55 Mostly Cloudy with Mist and Fog 54 12 54 12 100 100 Calm 29.81 1010 3 5 0.00 0.00
6:15 am 06:15 Cloudy with Mist and Fog 54 12 54 12 100 100 Calm 29.82 1010 3 5 0.00 0.00
6:35 am 06:35 Cloudy with Mist and Fog 52 11 52 11 100 100 Calm 29.82 1010 1 2 0.00 0.00
6:55 am 06:55 Cloudy with Light Rain 54 12 54 12 100 100 Calm 29.83 1010 1 2 0.00 0.00
7:15 am 07:15 Cloudy with Light Rain 54 12 54 12 100 100 Calm 29.83 1010 2 3 0.00 0.00
7:35 am 07:35 Cloudy with Light Rain 54 12 54 12 100 100 Calm 29.83 1010 3 5 0.00 0.00
7:55 am 07:55 Cloudy with Light Rain 54 12 54 12 100 100 Calm 29.84 1011 3 5 0.00 0.00
8:15 am 08:15 Cloudy with Rain 54 12 54 12 100 100 SSE 3 6 29.84 1011 2 3 0.00 0.00
8:35 am 08:35 Cloudy with Rain 54 12 54 12 100 100 Calm 29.84 1011 2 2 0.00 0.00
8:55 am 08:55 Cloudy with Light Rain 54 12 54 12 100 100 Calm 29.85 1011 2 2 0.00 0.00
9:15 am 09:15 Cloudy with Light Rain 54 12 54 12 100 100 Calm 29.84 1011 2 2 0.00 0.00
9:35 am 09:35 Cloudy with Light Rain 55 13 55 13 100 100 Calm 29.84 1011 2 3 0.00 0.00
9:55 am 09:55 Cloudy with Rain 54 12 54 12 100 100 NNE 3 6 29.85 1011 2 2 0.00 0.00
10:15 am 10:15 Cloudy with Rain 55 13 55 13 100 100 ENE 5 7 29.83 1010 2 3 0.00 0.00
10:35 am 10:35 Cloudy with Rain 55 13 55 13 100 100 Calm 29.82 1010 2 3 0.00 0.00
10:55 am 10:55 Cloudy with Rain 55 13 55 13 100 100 Calm 29.81 1010 2 3 0.00 0.00
11:15 am 11:15 Cloudy with Light Rain 55 13 55 13 100 100 Calm 29.80 1009 2 3 0.00 0.00
11:35 am 11:35 Cloudy with Light Rain 55 13 55 13 100 100 Calm 29.77 1008 2 3 0.00 0.00
11:55 am 11:55 Cloudy with Light Rain 55 13 55 13 100 100 SSE 3 6 29.77 1008 2 3 0.00 0.00
12:15 pm 12:15 Cloudy with Light Rain 57 14 57 14 100 100 S 6 9 29.75 1007 7 11 0.00 0.00
12:35 pm 12:35 Cloudy with Light Rain 59 15 59 15 100 100 S 5 7 29.73 1007 10 16 0.00 0.00
12:55 pm 12:55 Cloudy 59 15 59 15 100 100 Calm 29.72 1006 10 16 0.00 0.00
1:15 pm 13:15 Cloudy 59 15 59 15 100 100 Calm 29.72 1006 10 16 0.00 0.00
1:35 pm 13:35 Cloudy 59 15 59 15 100 100 Calm 29.72 1006 10 16 0.00 0.00
1:55 pm 13:55 Cloudy 59 15 59 15 100 100 Calm 29.71 1006 10 16 0.00 0.00
2:15 pm 14:15 Cloudy 59 15 59 15 100 100 ENE 3 6 29.70 1006 7 11 0.00 0.00
2:35 pm 14:35 Cloudy with Mist and Fog 57 14 57 14 100 100 NE 3 6 29.70 1006 1 2 0.00 0.00
2:55 pm 14:55 Cloudy with Fog 57 14 57 14 100 100 Calm 29.69 1005 1 1 0.00 0.00
3:15 pm 15:15 Cloudy with Fog 57 14 57 14 100 100 Calm 29.69 1005 0 0 0.00 0.00
3:35 pm 15:35 Cloudy with Fog 57 14 57 14 100 100 Calm 29.69 1005 0 0 0.00 0.00
3:55 pm 15:55 Cloudy with Fog 57 14 57 14 100 100 ESE 5 7 29.67 1005 0 0 0.00 0.00
4:15 pm 16:15 Cloudy with Fog 57 14 57 14 100 100 E 3 6 29.67 1005 N/A 0.00 0.00
4:35 pm 16:35 Cloudy with Fog 57 14 57 14 100 100 ESE 5 7 29.66 1004 0 0 0.00 0.00
4:55 pm 16:55 Cloudy with Fog 57 14 57 14 100 100 Calm 29.66 1004 0 0 0.00 0.00
5:15 pm 17:15 Cloudy with Fog 57 14 57 14 100 100 N 5 7 29.67 1005 1 1 0.00 0.00
5:35 pm 17:35 Cloudy with Fog 55 13 55 13 100 100 NNE 6 9 29.65 1004 1 1 0.00 0.00
5:55 pm 17:55 Cloudy with Fog 55 13 55 13 100 100 ENE 3 6 29.64 1004 1 1 0.00 0.00
6:15 pm 18:15 Cloudy with Fog 55 13 55 13 100 100 Calm 29.62 1003 1 1 0.00 0.00
6:35 pm 18:35 Cloudy with Fog 55 13 55 13 100 100 Calm 29.62 1003 1 1 0.00 0.00
6:55 pm 18:55 Cloudy with Fog 55 13 55 13 100 100 ESE 3 6 29.60 1002 0 0 0.00 0.00
7:15 pm 19:15 Cloudy with Fog 55 13 55 13 100 100 Calm 29.59 1002 1 1 0.00 0.00
7:35 pm 19:35 Cloudy with Mist and Fog 55 13 55 13 100 100 Calm 29.59 1002 1 1 0.00 0.00
7:55 pm 19:55 Cloudy with Light Rain 57 14 57 14 100 100 W 17 28 29.59 1002 1 2 0.01 0.25
8:15 pm 20:15 Cloudy with Heavy Rain 59 15 59 15 100 100 NNW 15 24 29.62 1003 2 3 0.26 6.60
8:35 pm 20:35 Cloudy with Light Rain 57 14 57 14 100 100 Calm 29.63 1003 10 16 0.36 9.14
8:55 pm 20:55 Cloudy with Heavy Rain 55 13 55 13 100 100 NE 3 6 29.62 1003 4 6 0.48 12.19
9:15 pm 21:15 Cloudy with Rain 55 13 55 13 100 100 N 6 9 29.63 1003 7 11 0.02 0.51
9:35 pm 21:35 Cloudy with Heavy Rain 55 13 55 13 100 100 Calm 29.62 1003 3 4 0.18 4.57
9:55 pm 21:55 Cloudy with Light Rain 55 13 55 13 100 100 NNW 5 7 29.62 1003 10 16 0.19 4.83
10:15 pm 22:15 Cloudy 55 13 55 13 100 100 N 7 11 29.62 1003 10 16 0.00 0.00
10:35 pm 22:35 Cloudy 55 13 55 13 100 100 Calm 29.64 1004 10 16 0.00 0.00
10:55 pm 22:55 Cloudy 55 13 55 13 100 100 Calm 29.64 1004 10 16 0.00 0.00
11:15 pm 23:15 Cloudy 55 13 55 13 100 100 WNW 9 15 29.65 1004 10 16 0.00 0.00
11:35 pm 23:35 Mostly Cloudy with Light Rain 55 13 55 13 100 100 WSW 3 6 29.64 1004 10 16 0.00 0.00
11:55 pm 23:55 Mostly Cloudy 54 12 54 12 100 100 Calm 29.62 1003 10 16 0.00 0.00

Powered by AerisWeather